[[[{"header":{"parameterUnit":"kt","parameterCategory":2,"dx":1,"dy":1,"la1":30.253999710083008,"la2":30.299108505249023,"lo1":-89.0895004272461,"lo2":-89.04439544677734,"nx":28,"ny":28,"refTime":"2022-10-08T21:00:00:Z","depth":"0","parameterNumber":2,"parameterNumberName":"U-component_of_CURRENTS"},"data":[0.2193,0.2153,0.2108,0.2011,0.1956,0.1893,0.1881,0.1934,0.2052,0.2242,0.2405,0.2533,0.2508,0.2417,0.2242,0.2242,0.1973,0.201,0.1891,0.2135,0.2165,0.2193,0.2083,0.1899,0.1898,0.1416,0.1411,0.1407,0.2179,0.2147,0.2107,0.2055,0.2,0.1997,0.2007,0.2019,0.2114,0.2318,0.2466,0.2675,0.281,0.2924,0.2933,0.2786,0.2745,0.2645,0.2459,0.2411,0.2889,0.2806,0.2772,0.2772,0.2773,0.2773,0.2773,0.2773,0.2181,0.2146,0.2158,0.2098,0.2077,0.205,0.2028,0.2122,0.2187,0.2355,0.2481,0.2697,0.2895,0.3208,0.325,0.3196,0.3196,0.3082,0.2979,0.2918,0.2762,0.321,0.3383,0.3383,0.3384,0.3384,0.3384,0,0.2226,0.2201,0.2207,0.2169,0.2152,0.2128,0.2159,0.2167,0.2309,0.2381,0.2538,0.2673,0.2947,0.3122,0.3311,0.3385,0.3173,0.3371,0.314,0.2879,0.27,0.2594,0.3073,0.33,0.33,0.33,0.33,0.33,0.2253,0.2274,0.227,0.2257,0.2237,0.2251,0.2258,0.2336,0.2381,0.254,0.2576,0.2743,0.2869,0.3106,0.3238,0.3401,0.3189,0.3369,0.329,0.2996,0.2856,0.275,0.266,0.3301,0.3301,0.3301,0.3301,0,0.2266,0.2291,0.2319,0.2362,0.2362,0.2373,0.2377,0.243,0.2504,0.2564,0.2592,0.2733,0.2886,0.2988,0.3147,0.3166,0.3174,0.329,0.3169,0.3156,0.2957,0.283,0.2895,0.2806,0.3385,0.3385,0.3386,0,0.2262,0.2297,0.2306,0.2316,0.2361,0.2417,0.2459,0.2513,0.2583,0.2623,0.2708,0.2755,0.2859,0.2952,0.2983,0.3075,0.3145,0.3061,0.3063,0.2998,0.2984,0.2824,0.2692,0.3152,0.3151,0.3149,0.3148,0,0.2178,0.2236,0.2287,0.2302,0.2339,0.238,0.2412,0.2478,0.2498,0.2618,0.2641,0.2783,0.2774,0.2902,0.2866,0.2825,0.3028,0.2972,0.2987,0.2982,0.2995,0.2981,0.2967,0.3147,0.3146,0.3146,0.3145,0,0.2107,0.213,0.2177,0.2265,0.2286,0.2279,0.24,0.2416,0.2493,0.2515,0.2603,0.2596,0.2661,0.2569,0.2718,0.265,0.2669,0.2669,0.2676,0.2669,0.2575,0.2689,0.2825,0.2595,0.268,0.2677,0.2674,0,0.206,0.2087,0.2086,0.2138,0.2185,0.2208,0.2221,0.2265,0.2293,0.2355,0.237,0.2385,0.2311,0.2313,0.2385,0.2383,0.2471,0.2341,0.2544,0.2549,0.2539,0.2671,0.2624,0.2769,0.2629,0.2634,0.2637,0,0.2024,0.2029,0.2033,0.2072,0.2082,0.2103,0.2116,0.2189,0.224,0.2217,0.2317,0.2241,0.2263,0.2247,0.22,0.2263,0.2385,0.2232,0.2237,0.2316,0.2638,0.2608,0.2634,0.2425,0.2431,0.2436,0.2602,0,0.2009,0.2022,0.2023,0.2031,0.2042,0.2074,0.2068,0.2084,0.2083,0.21,0.2146,0.208,0.2112,0.2062,0.2001,0.2109,0.2105,0.2095,0.2105,0.2169,0.2219,0.2247,0.1905,0.1904,0.1903,0.1902,0,0,0.2015,0.2026,0.2015,0.2019,0.2052,0.2041,0.2074,0.2051,0.2044,0.2091,0.2033,0.2037,0.1966,0.2009,0.1989,0.1938,0.2004,0.1957,0.2099,0.212,0.2141,0.2196,0.2223,0.1901,0.1901,0.1901,0.19,0,0.2028,0.2017,0.2015,0.2021,0.2038,0.2046,0.2049,0.2062,0.2067,0.2038,0.203,0.2022,0.1942,0.1949,0.1932,0.1926,0.1965,0.1899,0.1968,0.2087,0.211,0.213,0.2188,0.2213,0.1899,0.1899,0.1899,0,0.2046,0.2049,0.2043,0.2046,0.2051,0.2057,0.207,0.2078,0.2082,0.2046,0.2024,0.1999,0.1957,0.1929,0.191,0.1901,0.195,0.1868,0.1871,0.1919,0.2044,0.2067,0.2088,0.1832,0.1832,0.1832,0,0,0.206,0.2052,0.2067,0.2051,0.2058,0.2067,0.207,0.2081,0.2069,0.2061,0.2031,0.1996,0.1966,0.1941,0.1908,0.1865,0.1923,0.1862,0.1865,0.1868,0.1917,0.2041,0.2063,0.1832,0.1832,0.1832,0,0,0.207,0.208,0.2078,0.2065,0.2073,0.2086,0.2084,0.209,0.2065,0.2063,0.2029,0.2016,0.1981,0.1948,0.1954,0.1912,0.1896,0.1893,0.1939,0.1942,0.1945,0.2017,0.1941,0,0,0,0,0,0.2092,0.2079,0.2077,0.2077,0.2073,0.2082,0.2082,0.2094,0.2096,0.2094,0.2063,0.2046,0.1955,0.1959,0.1943,0.1947,0.1833,0.1833,0.1833,0.1881,0.1885,0.1888,0,0,0,0,0,0,0.2092,0.209,0.2078,0.2088,0.2088,0.2081,0.2092,0.2094,0.2097,0.2099,0.2053,0.2044,0.2022,0.1964,0.1951,0.1956,0.1945,0.1833,0.1833,0.1833,0.1883,0.1886,0.1889,0,0,0,0,0,0.2092,0.2091,0.2079,0.2089,0.2089,0.2103,0.2092,0.2094,0.2092,0.2059,0.2053,0.2103,0.2022,0.2008,0.1956,0.1963,0.1954,0.195,0.1833,0.1833,0.1833,0.1884,0,0,0,0,0,0,0.2093,0.2086,0.2079,0.2081,0.2097,0.2104,0.2104,0.2094,0.205,0.2046,0.2106,0.2107,0.2022,0.2011,0.2001,0.1969,0.1962,0.1957,0.1954,0.1833,0.1833,0.1833,0,0,0,0,0,0,0.2088,0.2087,0.208,0.2089,0.2091,0.2105,0.2105,0.2051,0.2046,0.2096,0.2098,0.2106,0.2019,0.2013,0.2005,0.1922,0.1968,0.1963,0.1959,0.1957,0.1833,0.1833,0,0,0,0,0,0,0.2088,0.2087,0.2089,0.209,0.2092,0.2101,0.2054,0.2034,0.2104,0.2095,0.2106,0.2107,0.2019,0.2012,0.2008,0.1929,0.1924,0.1967,0.1964,0.1962,0.196,0,0,0,0,0,0,0,0.2088,0.2089,0.2079,0.2091,0.2093,0.2092,0.2092,0.2092,0.2104,0.2105,0.2106,0.2107,0.1995,0.199,0.1984,0.1934,0,0,0.1968,0.1966,0,0,0,0,0,0,0,0,0.209,0.2089,0.2079,0.2079,0.208,0.2092,0.2092,0.2092,0.2105,0.2105,0.2106,0.2107,0.1993,0.1989,0.1985,0,0,0,0,0,0,0,0,0,0,0,0,0,0,0,0.2079,0.2079,0,0.2092,0.2092,0.2092,0.2105,0.2105,0.2106,0.2106,0.1992,0.1989,0.1985,0,0,0,0,0,0,0,0,0,0,0,0,0,0,0,0,0,0,0,0,0,0,0,0,0,0,0,0,0,0,0,0,0,0,0,0,0,0,0,0,0,0,0,0,0,0,0,0,0,0,0,0,0,0,0,0,0,0,0,0,0,0,0,0,0,0,0,0,0]}],[{"header":{"parameterUnit":"kt","parameterCategory":2,"dx":1,"dy":1,"la1":30.253999710083008,"la2":30.299108505249023,"lo1":-89.0895004272461,"lo2":-89.04439544677734,"nx":28,"ny":28,"refTime":"2022-10-08T21:00:00:Z","depth":"0","parameterNumber":3,"parameterNumberName":"V-component_of_CURRENTS"},"data":[0.0698,0.0679,0.0714,0.0736,0.0787,0.0802,0.0826,0.0819,0.0803,0.0698,0.0617,0.0557,0.0276,-0.0192,-0.0668,-0.0818,-0.0996,-0.1066,-0.121,-0.092,-0.0899,-0.0878,-0.0896,-0.1091,-0.1091,-0.1451,-0.1454,-0.1457,0.0765,0.079,0.0822,0.0856,0.0889,0.0946,0.0993,0.098,0.0949,0.0919,0.0825,0.0637,0.0358,0.0044,-0.0361,-0.0642,-0.0745,-0.0799,-0.079,-0.0854,-0.0541,-0.0548,-0.0672,-0.0672,-0.0672,-0.0672,-0.0672,-0.0672,0.0865,0.0881,0.0878,0.0916,0.0963,0.1014,0.1033,0.1045,0.1039,0.0961,0.0898,0.0761,0.0511,0.0094,-0.0141,-0.0467,-0.05,-0.0544,-0.0611,-0.0636,-0.0738,-0.0447,-0.0528,-0.0528,-0.0529,-0.0529,-0.0529,0,0.0887,0.0882,0.092,0.0953,0.099,0.1036,0.1066,0.1085,0.1058,0.1029,0.0918,0.0823,0.0535,0.0294,-0.0017,-0.0194,-0.0351,-0.0323,-0.04,-0.0439,-0.0506,-0.0615,-0.026,-0.0276,-0.0275,-0.0274,-0.0273,-0.0273,0.0793,0.0863,0.0906,0.0923,0.0937,0.1013,0.1036,0.1047,0.1035,0.0969,0.0942,0.0806,0.0654,0.0354,0.0106,-0.0139,-0.0253,-0.0286,-0.0291,-0.0394,-0.049,-0.0528,-0.0602,-0.0261,-0.0262,-0.0264,-0.0265,0,0.0702,0.0716,0.082,0.087,0.089,0.0965,0.0963,0.1001,0.0986,0.0952,0.0941,0.081,0.0638,0.0452,0.0266,0.0103,-0.0138,-0.0154,-0.0134,-0.0165,-0.0387,-0.0452,-0.0565,-0.0661,-0.0308,-0.0311,-0.0313,0,0.0527,0.0623,0.0623,0.0694,0.0806,0.0802,0.089,0.0886,0.0865,0.0845,0.076,0.0709,0.0546,0.0417,0.0254,0.0033,0.0099,-0.0125,-0.0159,-0.0125,-0.0133,-0.0204,-0.0269,-0.0022,-0.0022,-0.0021,-0.0021,0,0.0369,0.042,0.0527,0.0544,0.0581,0.064,0.0656,0.065,0.0652,0.0649,0.063,0.0571,0.0511,0.0407,0.018,0.0173,0.0048,0.0035,-0.0139,-0.0148,-0.0126,-0.0135,-0.0192,-0.002,-0.002,-0.002,-0.002,0,0.0194,0.0237,0.0338,0.0419,0.0435,0.0464,0.0543,0.0549,0.0526,0.0497,0.0456,0.0385,0.0336,0.0228,0.0121,0.0126,0.0027,-0.0042,-0.0045,-0.0129,-0.0189,-0.0202,-0.0199,-0.0278,-0.012,-0.012,-0.0121,0,0.0091,0.0165,0.0119,0.0215,0.027,0.0217,0.025,0.025,0.0218,0.024,0.0172,0.0187,0.0067,0.0072,0.003,-0.0029,-0.0057,-0.0056,-0.0098,-0.0099,-0.0183,-0.0179,-0.0149,-0.02,-0.0124,-0.0123,-0.0123,0,0.0008,-0.0005,0.0004,0.0049,0.0008,0.0037,0.0045,0.0065,0.0105,0.0037,0.0093,0.0049,0.0001,0.001,-0.003,-0.0048,-0.007,-0.0096,-0.0097,-0.0118,-0.0079,-0.0174,-0.0182,-0.0075,-0.0074,-0.0073,-0.0126,0,-0.0074,-0.0063,-0.0049,-0.0064,-0.0064,-0.0041,-0.0087,-0.0081,-0.0113,-0.0137,-0.0108,-0.0145,-0.012,-0.0143,-0.0166,-0.0129,-0.0154,-0.0162,-0.0162,-0.014,-0.0172,-0.0169,-0.0201,-0.0201,-0.0202,-0.0202,0,0,-0.0134,-0.0127,-0.0187,-0.0175,-0.0163,-0.0238,-0.0203,-0.0227,-0.0242,-0.0219,-0.0271,-0.0239,-0.0246,-0.0185,-0.02,-0.02,-0.021,-0.0177,-0.0157,-0.0152,-0.0148,-0.0175,-0.0173,-0.0202,-0.0203,-0.0203,-0.0203,0,-0.0167,-0.0206,-0.0195,-0.021,-0.0237,-0.026,-0.0262,-0.0296,-0.0303,-0.0287,-0.0305,-0.0302,-0.0266,-0.0255,-0.0243,-0.0209,-0.0214,-0.021,-0.0166,-0.0161,-0.0156,-0.0151,-0.0177,-0.0175,-0.0204,-0.0204,-0.0204,0,-0.0223,-0.025,-0.0257,-0.0292,-0.0309,-0.0306,-0.0357,-0.0358,-0.0347,-0.0368,-0.0339,-0.0347,-0.0327,-0.0292,-0.0273,-0.0275,-0.022,-0.0227,-0.0226,-0.0199,-0.0194,-0.0188,-0.0183,-0.0248,-0.0248,-0.0248,0,0,-0.0246,-0.0256,-0.0306,-0.0304,-0.0316,-0.0352,-0.0357,-0.0378,-0.0383,-0.0383,-0.0375,-0.0361,-0.0339,-0.0317,-0.0296,-0.0248,-0.0249,-0.0232,-0.023,-0.0228,-0.0202,-0.0195,-0.019,-0.0248,-0.0248,-0.0248,0,0,-0.0255,-0.031,-0.0337,-0.0343,-0.0364,-0.0396,-0.0385,-0.0412,-0.0403,-0.0401,-0.0398,-0.039,-0.0354,-0.0339,-0.0346,-0.0293,-0.0304,-0.0301,-0.0294,-0.0291,-0.0289,-0.0264,-0.0346,0,0,0,0,0,-0.0315,-0.0305,-0.033,-0.0337,-0.0378,-0.0388,-0.039,-0.0417,-0.0438,-0.0429,-0.0424,-0.0416,-0.035,-0.0356,-0.0344,-0.0322,-0.0252,-0.0251,-0.0251,-0.0231,-0.0229,-0.0226,0,0,0,0,0,0,-0.0319,-0.0329,-0.033,-0.0364,-0.0373,-0.0388,-0.0423,-0.0429,-0.0439,-0.0444,-0.042,-0.0415,-0.0405,-0.0361,-0.035,-0.033,-0.035,-0.0252,-0.0251,-0.0251,-0.023,-0.0228,-0.0226,0,0,0,0,0,-0.0322,-0.033,-0.0393,-0.0363,-0.0371,-0.0405,-0.0424,-0.0429,-0.0436,-0.042,-0.0418,-0.0457,-0.0405,-0.0395,-0.0354,-0.0335,-0.0357,-0.0353,-0.0251,-0.0251,-0.0251,-0.0229,0,0,0,0,0,0,-0.0324,-0.0326,-0.0395,-0.0397,-0.0373,-0.0404,-0.0412,-0.0429,-0.0411,-0.0411,-0.0455,-0.0458,-0.0405,-0.0397,-0.0389,-0.0339,-0.0363,-0.0359,-0.0357,-0.0251,-0.0251,-0.025,0,0,0,0,0,0,-0.0322,-0.0328,-0.0396,-0.0407,-0.0411,-0.0403,-0.041,-0.0365,-0.0408,-0.0445,-0.0449,-0.0456,-0.0396,-0.0398,-0.0392,-0.0322,-0.0368,-0.0364,-0.0361,-0.036,-0.0251,-0.0251,0,0,0,0,0,0,-0.0325,-0.033,-0.0406,-0.0409,-0.0413,-0.0442,-0.036,-0.0386,-0.0464,-0.0443,-0.0467,-0.0468,-0.0395,-0.0391,-0.0394,-0.0326,-0.0323,-0.0368,-0.0365,-0.0363,-0.0362,0,0,0,0,0,0,0,-0.0327,-0.0291,-0.0383,-0.0411,-0.0415,-0.0422,-0.0422,-0.0422,-0.0464,-0.0465,-0.0467,-0.0468,-0.039,-0.0385,-0.0381,-0.033,0,0,-0.0368,-0.0366,0,0,0,0,0,0,0,0,-0.0289,-0.029,-0.0383,-0.0383,-0.0384,-0.0422,-0.0422,-0.0422,-0.0464,-0.0465,-0.0466,-0.0467,-0.0389,-0.0385,-0.0382,0,0,0,0,0,0,0,0,0,0,0,0,0,0,0,-0.0383,-0.0383,0,-0.0422,-0.0422,-0.0422,-0.0465,-0.0465,-0.0466,-0.0467,-0.0388,-0.0385,-0.0382,0,0,0,0,0,0,0,0,0,0,0,0,0,0,0,0,0,0,0,0,0,0,0,0,0,0,0,0,0,0,0,0,0,0,0,0,0,0,0,0,0,0,0,0,0,0,0,0,0,0,0,0,0,0,0,0,0,0,0,0,0,0,0,0,0,0,0,0,0]}]],[[{"header":{"parameterUnit":"kt","parameterCategory":2,"dx":1,"dy":1,"la1":30.253999710083008,"la2":30.299108505249023,"lo1":-89.0895004272461,"lo2":-89.04439544677734,"nx":28,"ny":28,"refTime":"2022-10-08T21:00:00:Z","depth":"2","parameterNumber":2,"parameterNumberName":"U-component_of_CURRENTS"},"data":[0.2602,0.2615,0.2566,0.2609,0.2538,0.2677,0.2848,0.3039,0.3005,0.2644,0.2205,0.1847,0.1808,0.1314,0.1278,0.1151,0.141,0.114,0.2058,0.1814,0.1865,0.1984,0.1761,0,0,0,0,0,0.247,0.2439,0.2455,0.2476,0.2487,0.2417,0.2737,0.2884,0.3154,0.2965,0.2989,0.2412,0.2115,0.2084,0.1761,0.1745,0.1655,0.1793,0.1549,0.1605,0.1656,0.1476,0.1097,0.1096,0.1095,0.1094,0,0,0.2374,0.2358,0.2422,0.2349,0.2345,0.2486,0.2609,0.2812,0.2994,0.3133,0.3284,0.3149,0.2962,0.2602,0.2616,0.2547,0.2738,0.2511,0.2522,0.2543,0.2414,0.2283,0.228,0.2285,0.229,0.2295,0.2299,0,0.2343,0.2319,0.2358,0.2332,0.2345,0.2378,0.2489,0.2565,0.2796,0.2882,0.323,0.3348,0.3399,0.3186,0.3124,0.312,0.2986,0.2909,0.3523,0.2394,0.2251,0.2212,0.2217,0.227,0.2276,0.2281,0.2284,0.2286,0.233,0.2355,0.2359,0.2366,0.235,0.2368,0.2403,0.2464,0.2596,0.2832,0.2969,0.3144,0.3322,0.3482,0.3377,0.342,0.3572,0.3041,0.2829,0.3236,0.3204,0.3177,0.3151,0.2352,0.2343,0.2336,0.2331,0,0.2338,0.2365,0.2402,0.2451,0.2453,0.2467,0.2474,0.255,0.2604,0.2753,0.2784,0.2923,0.3146,0.3199,0.3365,0.3285,0.3394,0.3411,0.2882,0.2816,0.3162,0.3136,0.3419,0.342,0.342,0.3421,0.3421,0,0.2326,0.2368,0.238,0.2393,0.2448,0.2502,0.2552,0.2606,0.2676,0.2786,0.2798,0.2915,0.2943,0.3065,0.3087,0.3175,0.3262,0.3112,0.3109,0.2681,0.2637,0.3007,0.2981,0.3214,0.3213,0.3212,0.3211,0,0.223,0.2298,0.2358,0.2375,0.2418,0.2462,0.2495,0.2563,0.2585,0.27,0.2726,0.2863,0.2856,0.2975,0.2959,0.2888,0.3134,0.3031,0.3035,0.3028,0.2686,0.2641,0.3209,0.3209,0.3209,0.3208,0.3208,0,0.2152,0.2179,0.2236,0.2332,0.2356,0.235,0.2479,0.2495,0.2571,0.2593,0.2681,0.2669,0.2733,0.2636,0.2784,0.2712,0.2728,0.2725,0.2733,0.2714,0.2611,0.2347,0.2395,0.2735,0.2731,0.2727,0.2724,0,0.2095,0.213,0.213,0.2191,0.2244,0.2266,0.2282,0.2328,0.2355,0.2418,0.2432,0.2447,0.2371,0.237,0.2444,0.2435,0.2525,0.2394,0.2592,0.2597,0.2575,0.2708,0.2243,0.2355,0.2679,0.2684,0.2687,0,0.2052,0.2061,0.2068,0.2111,0.2124,0.2145,0.2161,0.2238,0.2293,0.2267,0.2372,0.2298,0.2317,0.2303,0.2253,0.2315,0.2438,0.2278,0.2283,0.2363,0.2689,0.2645,0.2671,0.2471,0.2477,0.2482,0.2651,0,0.2034,0.2051,0.2053,0.2065,0.2077,0.2111,0.2104,0.212,0.212,0.2137,0.2188,0.2119,0.2154,0.2103,0.2041,0.2153,0.2146,0.2132,0.2141,0.2207,0.2259,0.2287,0.1936,0.1935,0.1935,0.1934,0,0,0.2036,0.2052,0.2038,0.2044,0.208,0.2066,0.2104,0.2079,0.2072,0.2122,0.206,0.207,0.1998,0.2046,0.2026,0.1973,0.2037,0.1992,0.2136,0.2158,0.2179,0.2234,0.2263,0.1933,0.1932,0.1932,0.1932,0,0.2048,0.2038,0.2039,0.2045,0.2062,0.207,0.2074,0.2086,0.2091,0.2064,0.2056,0.2049,0.197,0.1979,0.1963,0.196,0.1997,0.1931,0.2006,0.2124,0.2147,0.2168,0.2226,0.2252,0.193,0.193,0.193,0,0.2066,0.207,0.2065,0.2068,0.2073,0.2081,0.2092,0.2099,0.2105,0.2067,0.2048,0.2023,0.1982,0.1954,0.1936,0.1927,0.1981,0.1896,0.1899,0.1952,0.2077,0.2101,0.2122,0.1858,0.1858,0.1858,0,0,0.2081,0.2073,0.2088,0.2073,0.2081,0.209,0.2092,0.2102,0.2089,0.2082,0.2052,0.2019,0.199,0.1966,0.1932,0.1892,0.195,0.189,0.1894,0.1897,0.195,0.2074,0.2096,0.1858,0.1858,0.1858,0,0,0.2089,0.21,0.21,0.2087,0.2095,0.2105,0.2103,0.211,0.2086,0.2084,0.205,0.2037,0.2004,0.197,0.1976,0.1936,0.192,0.1916,0.1963,0.1966,0.197,0.2047,0.1961,0,0,0,0,0,0.2112,0.21,0.2099,0.2099,0.2095,0.2102,0.2102,0.2112,0.2116,0.2113,0.2083,0.2066,0.1976,0.1979,0.1964,0.197,0.1859,0.1859,0.1859,0.1909,0.1913,0.1917,0,0,0,0,0,0,0.2112,0.2111,0.21,0.2108,0.2109,0.2101,0.2111,0.2113,0.2117,0.2119,0.2074,0.2065,0.2041,0.1984,0.1971,0.1978,0.1966,0.1859,0.1859,0.1859,0.191,0.1914,0.1917,0,0,0,0,0,0.2113,0.2111,0.21,0.2109,0.2109,0.2122,0.2111,0.2113,0.2112,0.2078,0.2071,0.2122,0.2041,0.2028,0.1976,0.1985,0.1975,0.197,0.1859,0.1859,0.1859,0.1912,0,0,0,0,0,0,0.2113,0.2106,0.21,0.2101,0.2116,0.2123,0.2122,0.2113,0.2069,0.2065,0.2123,0.2124,0.2041,0.203,0.202,0.1991,0.1982,0.1977,0.1974,0.1859,0.1859,0.1859,0,0,0,0,0,0,0.2108,0.2107,0.21,0.2109,0.2111,0.2123,0.2123,0.2071,0.2066,0.2114,0.2116,0.2124,0.2038,0.2032,0.2024,0.1944,0.1987,0.1983,0.1979,0.1977,0.1859,0.1859,0,0,0,0,0,0,0.2108,0.2107,0.2109,0.211,0.2112,0.212,0.2074,0.2055,0.2121,0.2113,0.2123,0.2124,0.2038,0.2031,0.2027,0.1951,0.1946,0.1987,0.1984,0.1982,0.198,0,0,0,0,0,0,0,0.2108,0.2109,0.21,0.2111,0.2112,0.2112,0.2112,0.2111,0.2121,0.2122,0.2123,0.2124,0.2014,0.2008,0.2003,0.1956,0,0,0.1988,0.1985,0,0,0,0,0,0,0,0,0.211,0.2109,0.21,0.2101,0.2101,0.2112,0.2112,0.2111,0.2122,0.2122,0.2123,0.2123,0.2012,0.2008,0.2004,0,0,0,0,0,0,0,0,0,0,0,0,0,0,0,0.21,0.2101,0,0.2112,0.2112,0.2111,0.2122,0.2122,0.2123,0.2123,0.2011,0.2008,0.2004,0,0,0,0,0,0,0,0,0,0,0,0,0,0,0,0,0,0,0,0,0,0,0,0,0,0,0,0,0,0,0,0,0,0,0,0,0,0,0,0,0,0,0,0,0,0,0,0,0,0,0,0,0,0,0,0,0,0,0,0,0,0,0,0,0,0,0,0,0]}],[{"header":{"parameterUnit":"kt","parameterCategory":2,"dx":1,"dy":1,"la1":30.253999710083008,"la2":30.299108505249023,"lo1":-89.0895004272461,"lo2":-89.04439544677734,"nx":28,"ny":28,"refTime":"2022-10-08T21:00:00:Z","depth":"2","parameterNumber":3,"parameterNumberName":"V-component_of_CURRENTS"},"data":[0.0842,0.0834,0.0863,0.0909,0.0965,0.1033,0.1033,0.1108,0.1143,0.12,0.1233,0.1368,0.1019,0.0714,0.0462,0.0257,0.0203,0.0221,0.0383,0.0297,0.0297,0.0098,0.0138,0,0,0,0,0,0.0873,0.0898,0.0938,0.0978,0.1018,0.106,0.1054,0.108,0.1092,0.1165,0.1273,0.1072,0.0957,0.0742,0.0377,0.0221,0.0146,0.016,0.0062,0.0061,0.006,0.0083,0.0071,0.007,0.0069,0.0069,0,0,0.0939,0.0956,0.0965,0.1,0.1044,0.1056,0.1085,0.1073,0.1075,0.1108,0.1102,0.1162,0.0977,0.0769,0.055,0.0301,0.033,0.0204,0.0198,0.0193,0.0228,0.023,0.0253,0.0253,0.0254,0.0254,0.0255,0,0.0946,0.0939,0.0974,0.1017,0.1051,0.1086,0.1096,0.1073,0.1045,0.1061,0.1036,0.1067,0.0943,0.0777,0.0596,0.0452,0.0242,0.0211,0.023,0.0096,0.0088,0.0067,0.0065,0.0082,0.0082,0.0082,0.0082,0.0081,0.085,0.0913,0.0953,0.0973,0.0988,0.1059,0.1078,0.1082,0.105,0.1026,0.0988,0.0944,0.0906,0.0735,0.0518,0.0353,0.0291,0.02,0.0169,0.0176,0.0156,0.0152,0.0148,0.0078,0.0078,0.0079,0.0079,0,0.0763,0.0778,0.0873,0.0921,0.094,0.1009,0.1006,0.1039,0.1025,0.0996,0.0986,0.0876,0.0779,0.0624,0.046,0.0339,0.0225,0.018,0.0122,0.0106,0.0137,0.0136,0.0178,0.018,0.0182,0.0184,0.0186,0,0.0603,0.0691,0.0694,0.0761,0.0863,0.086,0.0938,0.0933,0.0911,0.0894,0.0811,0.0772,0.0613,0.0513,0.0359,0.024,0.0224,0.0134,0.012,0.0068,0.0068,0.0051,0.0049,0.0071,0.0071,0.0072,0.0072,0,0.0467,0.0508,0.0606,0.0622,0.0657,0.0711,0.0724,0.0716,0.0715,0.0709,0.0693,0.0632,0.0582,0.0477,0.0287,0.0264,0.0171,0.0132,0.0107,0.0109,0.0068,0.0067,0.0072,0.0073,0.0073,0.0073,0.0073,0,0.0311,0.0351,0.0438,0.0515,0.0529,0.0552,0.0625,0.0624,0.06,0.0573,0.0532,0.0468,0.0416,0.032,0.0215,0.0224,0.0132,0.0067,0.0064,0.0138,0.0101,0.0019,0.0033,0.0001,0.0001,0.0001,0.0001,0,0.0232,0.0294,0.0252,0.0333,0.0383,0.0337,0.0361,0.0358,0.0328,0.0346,0.0281,0.0291,0.0182,0.0187,0.0143,0.009,0.0058,0.0063,0.0028,0.0027,0.0091,0.0121,0.007,0.003,-0.0001,-0.0001,-0.0001,0,0.017,0.016,0.0166,0.0208,0.0166,0.0193,0.0191,0.0204,0.0239,0.0171,0.0218,0.0168,0.0129,0.0135,0.0099,0.0077,0.0049,0.0038,0.0038,0.0017,0.0038,0.0107,0.0114,0.0048,0.0049,0.005,-0.0002,0,0.0113,0.012,0.0129,0.0111,0.0109,0.0126,0.0083,0.0085,0.0055,0.0031,0.0051,0.0014,0.0033,0.0009,-0.0012,0.0013,-0.0004,-0.0009,-0.0006,0.0006,-0.0022,-0.0021,-0.0035,-0.0035,-0.0035,-0.0035,0,0,0.0072,0.0075,0.0025,0.003,0.0039,-0.0027,-0.0002,-0.0028,-0.0049,-0.0029,-0.0075,-0.0055,-0.0065,-0.0019,-0.0035,-0.0036,-0.0043,-0.0014,-0.0005,-0.0001,0.0002,-0.0024,-0.0023,-0.0036,-0.0036,-0.0036,-0.0036,0,0.005,0.0016,0.0021,0.0006,-0.0021,-0.0043,-0.0047,-0.0083,-0.0092,-0.0085,-0.0101,-0.0103,-0.0077,-0.0071,-0.0062,-0.004,-0.0042,-0.0041,-0.0009,-0.0007,-0.0003,0.0,-0.0024,-0.0023,-0.0036,-0.0036,-0.0036,0,0.0009,-0.0015,-0.0023,-0.0057,-0.0076,-0.0079,-0.0121,-0.0128,-0.0125,-0.0142,-0.0127,-0.0134,-0.0119,-0.0094,-0.0081,-0.008,-0.0043,-0.0046,-0.0045,-0.0023,-0.002,-0.0016,-0.0013,-0.0055,-0.0055,-0.0055,0,0,-0.0008,-0.0017,-0.0064,-0.0067,-0.0079,-0.0115,-0.0123,-0.0144,-0.0152,-0.0155,-0.0153,-0.0143,-0.0127,-0.0111,-0.0094,-0.0059,-0.0059,-0.0048,-0.0047,-0.0046,-0.0024,-0.0021,-0.0017,-0.0055,-0.0055,-0.0055,0,0,-0.0014,-0.0063,-0.0088,-0.0099,-0.012,-0.0152,-0.0147,-0.0173,-0.0171,-0.0171,-0.017,-0.0164,-0.0138,-0.0125,-0.013,-0.0092,-0.0098,-0.0095,-0.0094,-0.0093,-0.0092,-0.0071,-0.0128,0,0,0,0,0,-0.0062,-0.0058,-0.008,-0.0088,-0.0131,-0.0144,-0.0148,-0.0175,-0.0196,-0.0192,-0.0191,-0.0183,-0.0134,-0.0138,-0.0128,-0.0113,-0.0057,-0.0056,-0.0056,-0.0047,-0.0046,-0.0045,0,0,0,0,0,0,-0.0066,-0.0076,-0.008,-0.0114,-0.0123,-0.0144,-0.0175,-0.0182,-0.0197,-0.0201,-0.0186,-0.0182,-0.0174,-0.0141,-0.0132,-0.0119,-0.0131,-0.0057,-0.0056,-0.0056,-0.0047,-0.0046,-0.0045,0,0,0,0,0,-0.0068,-0.0077,-0.0143,-0.0113,-0.0122,-0.0158,-0.0176,-0.0182,-0.0193,-0.0182,-0.0181,-0.0215,-0.0174,-0.0166,-0.0136,-0.0124,-0.0136,-0.0133,-0.0056,-0.0056,-0.0056,-0.0046,0,0,0,0,0,0,-0.0071,-0.0075,-0.0144,-0.0147,-0.0121,-0.0157,-0.0165,-0.0181,-0.0172,-0.0173,-0.0209,-0.0212,-0.0173,-0.0167,-0.0161,-0.0127,-0.0141,-0.0138,-0.0136,-0.0056,-0.0056,-0.0056,0,0,0,0,0,0,-0.0071,-0.0078,-0.0146,-0.0155,-0.0159,-0.0156,-0.0163,-0.0127,-0.0169,-0.0198,-0.0202,-0.021,-0.0163,-0.0168,-0.0163,-0.0107,-0.0145,-0.0142,-0.014,-0.0138,-0.0056,-0.0056,0,0,0,0,0,0,-0.0074,-0.008,-0.0154,-0.0157,-0.0161,-0.0195,-0.0121,-0.0151,-0.022,-0.0196,-0.0222,-0.0223,-0.0162,-0.0159,-0.0164,-0.011,-0.0108,-0.0145,-0.0143,-0.0141,-0.014,0,0,0,0,0,0,0,-0.0076,-0.0037,-0.0129,-0.0159,-0.0162,-0.0176,-0.0176,-0.0177,-0.022,-0.0221,-0.0222,-0.0223,-0.0162,-0.0159,-0.0156,-0.0113,0,0,-0.0145,-0.0144,0,0,0,0,0,0,0,0,-0.0035,-0.0037,-0.0129,-0.013,-0.0131,-0.0176,-0.0176,-0.0177,-0.022,-0.0221,-0.0222,-0.0223,-0.0161,-0.0159,-0.0156,0,0,0,0,0,0,0,0,0,0,0,0,0,0,0,-0.0129,-0.013,0,-0.0176,-0.0176,-0.0177,-0.022,-0.0221,-0.0222,-0.0222,-0.0161,-0.0158,-0.0156,0,0,0,0,0,0,0,0,0,0,0,0,0,0,0,0,0,0,0,0,0,0,0,0,0,0,0,0,0,0,0,0,0,0,0,0,0,0,0,0,0,0,0,0,0,0,0,0,0,0,0,0,0,0,0,0,0,0,0,0,0,0,0,0,0,0,0,0,0]}]],[[{"header":{"parameterUnit":"kt","parameterCategory":2,"dx":1,"dy":1,"la1":30.253999710083008,"la2":30.299108505249023,"lo1":-89.0895004272461,"lo2":-89.04439544677734,"nx":28,"ny":28,"refTime":"2022-10-08T21:00:00:Z","depth":"4","parameterNumber":2,"parameterNumberName":"U-component_of_CURRENTS"},"data":[0.035,0.0383,0.0377,0.0395,0.0437,0.0488,0.0534,0.0578,0.0582,0.0671,0.0692,0.0783,0.0814,0.0861,0.0848,0.0854,0.0882,0.0916,0.0914,0.1,0.1009,0.1018,0.1094,0,0,0,0,0,0.0366,0.0371,0.0405,0.0481,0.0533,0.0599,0.0651,0.0694,0.0767,0.0745,0.0823,0.0817,0.0844,0.0862,0.0853,0.0884,0.0947,0.0866,0.0934,0.1006,0.1016,0.1087,0,0,0,0,0,0,0.039,0.0403,0.0492,0.0572,0.0647,0.0672,0.0716,0.0768,0.0796,0.0896,0.086,0.0933,0.1018,0.1014,0.0959,0.0966,0.0972,0.096,0.0973,0.0983,0.1029,0.1013,0.0829,0,0,0,0,0,0.0419,0.051,0.0551,0.0646,0.0749,0.079,0.0905,0.088,0.0993,0.1061,0.1052,0.1073,0.1061,0.1071,0.108,0.1026,0.1108,0.1068,0.1074,0.1159,0.1154,0.114,0.1152,0.1056,0.1057,0.1058,0.1059,0,0.0552,0.0542,0.0686,0.0733,0.0844,0.0952,0.102,0.1143,0.1138,0.1196,0.1166,0.1231,0.1259,0.114,0.1182,0.112,0.1147,0.1094,0.1186,0.1172,0.1153,0.1163,0.1173,0.1067,0.1066,0.1066,0.1065,0,0.0643,0.0718,0.0724,0.0873,0.0929,0.0994,0.114,0.1143,0.1264,0.1244,0.1298,0.1362,0.1361,0.1381,0.1347,0.131,0.1237,0.1218,0.1318,0.1297,0.1185,0.1191,0.1081,0.1078,0.1075,0.1073,0.1071,0,0.0837,0.0808,0.097,0.096,0.1001,0.111,0.1149,0.1216,0.1283,0.1285,0.1403,0.1377,0.1477,0.1444,0.1426,0.1359,0.1376,0.1352,0.132,0.1448,0.1453,0.1426,0.1429,0.1413,0.1414,0.1415,0.1416,0,0.0994,0.1023,0.1009,0.1019,0.1104,0.1159,0.1229,0.1301,0.1309,0.1383,0.1388,0.1427,0.1483,0.1461,0.1487,0.1509,0.1421,0.1436,0.1362,0.1355,0.1434,0.1435,0.1417,0.1418,0.1418,0.1418,0.1419,0,0.1163,0.1168,0.1163,0.1164,0.117,0.1242,0.1239,0.1286,0.1349,0.1376,0.1418,0.1467,0.1512,0.1562,0.1539,0.1563,0.1552,0.1541,0.1535,0.1467,0.1438,0.1431,0.1435,0.1436,0.1437,0.1438,0.1439,0,0.1238,0.1232,0.1284,0.1269,0.1238,0.1296,0.1347,0.1392,0.141,0.1424,0.1484,0.1534,0.1593,0.1615,0.1616,0.1599,0.1586,0.1634,0.1511,0.1507,0.1447,0.1438,0.16,0.1452,0.145,0.1449,0.1448,0,0.1266,0.1316,0.131,0.1292,0.1346,0.1342,0.1399,0.1406,0.1408,0.1498,0.1476,0.1567,0.1596,0.16,0.1612,0.1613,0.1598,0.1607,0.1605,0.1537,0.1516,0.1458,0.1444,0.1601,0.1601,0.16,0.1458,0,0.13,0.1301,0.1318,0.1332,0.1355,0.1361,0.139,0.1429,0.1459,0.1476,0.1523,0.1562,0.1575,0.1596,0.1604,0.1614,0.1579,0.1584,0.1553,0.1576,0.1508,0.1501,0.1572,0.1571,0.1571,0.157,0,0,0.1276,0.1268,0.1295,0.1311,0.1301,0.1335,0.1334,0.1369,0.1409,0.1415,0.1448,0.1493,0.1531,0.1536,0.156,0.1576,0.154,0.1564,0.1571,0.1572,0.1572,0.1508,0.1502,0.1569,0.1569,0.1569,0.1569,0,0.1249,0.1268,0.1284,0.1293,0.1309,0.1302,0.1324,0.1334,0.1357,0.1409,0.1411,0.1459,0.1508,0.1508,0.151,0.1564,0.1525,0.1574,0.1587,0.1567,0.1568,0.1569,0.1507,0.1502,0.1567,0.1567,0.1568,0,0.1216,0.1211,0.1219,0.1224,0.1229,0.1239,0.1225,0.1261,0.1276,0.1287,0.1355,0.1381,0.1391,0.1438,0.147,0.1454,0.1493,0.151,0.1513,0.1511,0.1489,0.1491,0.1493,0.1467,0.1467,0.1467,0,0,0.1195,0.121,0.119,0.1212,0.1219,0.1211,0.1222,0.1231,0.1253,0.1277,0.1312,0.1346,0.137,0.1401,0.1433,0.148,0.1449,0.1498,0.1503,0.1507,0.1507,0.1486,0.1489,0.1466,0.1466,0.1466,0,0,0.1179,0.1159,0.1157,0.1175,0.118,0.1156,0.1187,0.1188,0.1238,0.1262,0.1272,0.1286,0.1363,0.1368,0.1352,0.1418,0.1398,0.1402,0.1416,0.1422,0.1427,0.1418,0.1334,0,0,0,0,0,0.1131,0.1155,0.1152,0.1152,0.1144,0.1149,0.115,0.116,0.1171,0.1205,0.1241,0.1244,0.1353,0.134,0.1351,0.1376,0.1452,0.1454,0.1457,0.1487,0.1493,0.1498,0,0,0,0,0,0,0.1131,0.1129,0.1151,0.1123,0.1121,0.1147,0.1129,0.1132,0.1169,0.1175,0.1232,0.1243,0.1246,0.1334,0.1345,0.1368,0.1331,0.1453,0.1455,0.1457,0.1489,0.1494,0.1498,0,0,0,0,0,0.113,0.1129,0.1119,0.1123,0.1122,0.113,0.113,0.1133,0.1178,0.1188,0.12,0.1193,0.1244,0.1258,0.1341,0.1363,0.1324,0.1327,0.1454,0.1456,0.1457,0.1491,0,0,0,0,0,0,0.113,0.1132,0.1119,0.1118,0.1136,0.1132,0.1134,0.1134,0.1192,0.1201,0.1145,0.1148,0.1243,0.1254,0.1264,0.136,0.1318,0.1322,0.1324,0.1455,0.1457,0.1458,0,0,0,0,0,0,0.1133,0.1132,0.1118,0.1134,0.1135,0.1134,0.1135,0.1171,0.1196,0.1149,0.1151,0.1147,0.1253,0.125,0.1259,0.1311,0.1313,0.1317,0.132,0.1321,0.1457,0.1458,0,0,0,0,0,0,0.1132,0.1132,0.1134,0.1135,0.1137,0.1132,0.1169,0.118,0.1151,0.1148,0.1155,0.1156,0.1251,0.1259,0.1255,0.1303,0.1309,0.1313,0.1316,0.1318,0.1319,0,0,0,0,0,0,0,0.1132,0.1138,0.112,0.1137,0.1138,0.1112,0.1112,0.1112,0.1151,0.1153,0.1154,0.1156,0.1292,0.1296,0.13,0.1297,0,0,0.1313,0.1315,0,0,0,0,0,0,0,0,0.1138,0.1138,0.112,0.1119,0.1119,0.1112,0.1112,0.1112,0.1152,0.1153,0.1154,0.1155,0.1293,0.1296,0.13,0,0,0,0,0,0,0,0,0,0,0,0,0,0,0,0.112,0.1119,0,0.1112,0.1112,0.1112,0.1152,0.1153,0.1154,0.1155,0.1294,0.1297,0.1299,0,0,0,0,0,0,0,0,0,0,0,0,0,0,0,0,0,0,0,0,0,0,0,0,0,0,0,0,0,0,0,0,0,0,0,0,0,0,0,0,0,0,0,0,0,0,0,0,0,0,0,0,0,0,0,0,0,0,0,0,0,0,0,0,0,0,0,0,0]}],[{"header":{"parameterUnit":"kt","parameterCategory":2,"dx":1,"dy":1,"la1":30.253999710083008,"la2":30.299108505249023,"lo1":-89.0895004272461,"lo2":-89.04439544677734,"nx":28,"ny":28,"refTime":"2022-10-08T21:00:00:Z","depth":"4","parameterNumber":3,"parameterNumberName":"V-component_of_CURRENTS"},"data":[0.0199,0.0254,0.0235,0.0337,0.0358,0.0412,0.0448,0.0474,0.0504,0.0526,0.0443,0.0432,0.0276,0.0365,0.0141,0.0112,0.0068,-0.0079,-0.008,-0.0147,-0.0147,-0.0148,-0.0159,0,0,0,0,0,0.0135,0.0142,0.0219,0.0212,0.0289,0.0284,0.0381,0.0391,0.0421,0.0523,0.0475,0.0464,0.0326,0.025,0.0154,0.0105,-0.0033,-0.001,-0.0064,-0.0147,-0.0148,-0.0158,0,0,0,0,0,0,-0.0017,0.0023,0.0001,0.0061,0.0124,0.0186,0.0205,0.0296,0.0348,0.0421,0.0457,0.0388,0.0343,0.0188,0.0132,0.0037,-0.0004,-0.0025,-0.0032,-0.0033,-0.0023,0.0052,0.0052,0,0,0,0,0,-0.0154,-0.0187,-0.0181,-0.0131,-0.01,-0.001,0.0051,0.0124,0.0163,0.0195,0.0291,0.0237,0.0253,0.0127,0.006,-0.0002,-0.0127,-0.0105,-0.0107,-0.0156,-0.011,-0.0103,-0.0098,-0.0148,-0.0148,-0.0148,-0.0148,0,-0.0226,-0.0288,-0.0303,-0.027,-0.0267,-0.0266,-0.0205,-0.0211,-0.0113,-0.0016,0.009,0.0096,0.0121,0.0092,-0.0001,-0.0102,-0.0093,-0.0105,-0.0157,-0.0109,-0.0104,-0.0099,-0.0094,-0.0148,-0.0148,-0.0148,-0.0148,0,-0.021,-0.0271,-0.0324,-0.036,-0.0364,-0.038,-0.0288,-0.0258,-0.0271,-0.0131,-0.0122,-0.0077,-0.0065,-0.0089,-0.0113,-0.0117,-0.0143,-0.0123,-0.0062,-0.0057,-0.0097,-0.0092,-0.0149,-0.0149,-0.0149,-0.0149,-0.0149,0,-0.0123,-0.0188,-0.0201,-0.0254,-0.0292,-0.0332,-0.0353,-0.0358,-0.0323,-0.0224,-0.0273,-0.018,-0.0224,-0.0176,-0.0177,-0.0133,-0.0158,-0.012,-0.0121,-0.011,-0.0104,-0.0112,-0.0106,-0.0167,-0.0168,-0.0168,-0.0168,0,0.0011,-0.0029,-0.0118,-0.0135,-0.0162,-0.0216,-0.0228,-0.0241,-0.019,-0.0259,-0.02,-0.0269,-0.0205,-0.0245,-0.0136,-0.0142,-0.0115,-0.0137,-0.011,-0.0106,-0.0111,-0.0104,-0.0168,-0.0168,-0.0168,-0.0168,-0.0168,0,0.015,0.013,0.0036,-0.0017,-0.0035,-0.0076,-0.0142,-0.0152,-0.0169,-0.0165,-0.0185,-0.0164,-0.016,-0.011,-0.0106,-0.0094,-0.0068,-0.0045,-0.0045,-0.004,-0.0019,0.0027,-0.0018,-0.0017,-0.0016,-0.0016,-0.0015,0,0.0256,0.0192,0.0215,0.013,0.0072,0.0094,0.0064,0.0038,0.0031,-0.0014,-0.0007,-0.0046,0.0009,-0.0002,-0.0008,0.0014,0.0002,0.0025,-0.0015,-0.0015,-0.0001,-0.0045,-0.0019,-0.0004,-0.0005,-0.0006,-0.0007,0,0.0325,0.0315,0.0309,0.027,0.0267,0.0232,0.0211,0.016,0.0127,0.011,0.005,0.004,0.0045,0.0032,0.0049,0.0039,0.0024,0.0063,0.0061,0.0078,-0.0041,-0.003,-0.0035,-0.001,-0.0012,-0.0013,0.0001,0,0.0392,0.0368,0.0352,0.0338,0.0324,0.0285,0.0292,0.0264,0.0259,0.0245,0.0181,0.0171,0.0117,0.0127,0.0145,0.0097,0.0115,0.0098,0.0107,0.0074,0.009,0.0083,0.016,0.016,0.0161,0.0161,0,0,0.0446,0.0416,0.0442,0.0421,0.04,0.0424,0.0381,0.038,0.0336,0.0303,0.0325,0.0234,0.0224,0.0165,0.0176,0.0156,0.0149,0.0164,0.0097,0.009,0.0083,0.0095,0.0089,0.0161,0.0161,0.0161,0.0161,0,0.0464,0.0473,0.0457,0.0448,0.0442,0.0437,0.043,0.0409,0.0403,0.0346,0.0346,0.0311,0.0243,0.0227,0.0212,0.0163,0.0165,0.0162,0.0147,0.0101,0.0093,0.0087,0.0097,0.0092,0.0162,0.0162,0.0162,0,0.0503,0.0506,0.0503,0.0489,0.0485,0.046,0.0484,0.0465,0.0443,0.043,0.0375,0.0353,0.0323,0.0271,0.0246,0.0253,0.018,0.0199,0.0197,0.0193,0.0145,0.0137,0.013,0.0222,0.0223,0.0223,0,0,0.0517,0.0514,0.051,0.0493,0.0489,0.0488,0.0479,0.048,0.0454,0.0442,0.0407,0.0376,0.0342,0.0315,0.0276,0.0218,0.021,0.0207,0.0204,0.0201,0.0196,0.0148,0.0141,0.0224,0.0224,0.0224,0,0,0.0521,0.0527,0.054,0.0519,0.0508,0.0498,0.0486,0.049,0.0455,0.0457,0.0433,0.042,0.0364,0.0345,0.0359,0.0291,0.0303,0.0298,0.0301,0.0297,0.0294,0.03,0.037,0,0,0,0,0,0.0549,0.0528,0.0539,0.0538,0.0521,0.0494,0.0491,0.0497,0.0513,0.0495,0.0466,0.0466,0.0355,0.0367,0.0351,0.0338,0.0235,0.0233,0.0231,0.0221,0.0217,0.0214,0,0,0,0,0,0,0.0548,0.0545,0.054,0.0531,0.0528,0.0495,0.0522,0.0522,0.0515,0.0517,0.0472,0.0465,0.0447,0.0373,0.036,0.0348,0.0375,0.0234,0.0233,0.0231,0.022,0.0217,0.0214,0,0,0,0,0,0.0547,0.0545,0.052,0.0531,0.0528,0.0531,0.0523,0.0523,0.0514,0.0483,0.0477,0.052,0.0447,0.0434,0.0365,0.0354,0.0384,0.0379,0.0233,0.0232,0.0231,0.0218,0,0,0,0,0,0,0.0547,0.0538,0.0519,0.0518,0.0544,0.0533,0.0531,0.0524,0.0479,0.0475,0.0529,0.0531,0.0447,0.0437,0.0427,0.0359,0.0392,0.0387,0.0384,0.0232,0.0231,0.023,0,0,0,0,0,0,0.054,0.0537,0.0518,0.0535,0.0535,0.0534,0.0533,0.0477,0.0476,0.0526,0.0528,0.053,0.0449,0.0438,0.043,0.0344,0.0397,0.0393,0.0389,0.0387,0.0231,0.023,0,0,0,0,0,0,0.0538,0.0536,0.0534,0.0535,0.0536,0.0525,0.0482,0.0455,0.0525,0.0526,0.0528,0.0529,0.0449,0.0442,0.0433,0.035,0.0345,0.0397,0.0394,0.0392,0.039,0,0,0,0,0,0,0,0.0538,0.0553,0.0528,0.0536,0.0536,0.0512,0.0511,0.0511,0.0525,0.0526,0.0528,0.0529,0.0425,0.042,0.0414,0.0355,0,0,0.0398,0.0395,0,0,0,0,0,0,0,0,0.0554,0.0553,0.0528,0.0528,0.0528,0.0512,0.0511,0.0511,0.0525,0.0526,0.0527,0.0528,0.0424,0.0419,0.0415,0,0,0,0,0,0,0,0,0,0,0,0,0,0,0,0.0528,0.0528,0,0.0512,0.0511,0.0511,0.0525,0.0526,0.0527,0.0528,0.0422,0.0419,0.0415,0,0,0,0,0,0,0,0,0,0,0,0,0,0,0,0,0,0,0,0,0,0,0,0,0,0,0,0,0,0,0,0,0,0,0,0,0,0,0,0,0,0,0,0,0,0,0,0,0,0,0,0,0,0,0,0,0,0,0,0,0,0,0,0,0,0,0,0,0]}]]]